Powrót do katalogu

STARLINK-34476

AktywnyŁącznośćVLEO
NORAD 64364·PAYLOAD·🇺🇸 United States

Wystrzelony Jun 13, 2025 z Vandenberg Space Force Base

Loading…

Następne Przeloty (najbliższe 24 godziny)

TLE

ŚwieżeSource: CelesTrak SupGP

Epoka: Sep 14, 2026, 20:57 UTC

1 64364C 25126W   26257.87340278  .00067334  00000+0  23419-2 0  2570
2 64364  70.0005 275.7015 0003488 265.0203  97.0579 15.29549939    19

Śledź STARLINK-34476 w czasie rzeczywistym z AllMySat

Download on the App Store